Weather observations for the past three days for
Stanton Airfield
Metric (Imperial)
Date Time (cdt) Wind (kph) Vis. (km) Weather Sky Cond. Temperature (ºC) Relative Humidity Wind Chill (°C) Heat Index (°C) Pressure Precipitation (cm)
Air Dwpt 6 hour altimeter (cm) sea level (mb) 1 hr 3 hr 6 hr
Max. Min.
08 17:35 NW 22 G 30 16.09 Mostly Cloudy BKN110 21.1 -2.5 20% 75.13 0.0
08 17:15 NW 19 G 26 16.09 Mostly Cloudy BKN110 21.3 -2.9 20% 75.16 0.0
08 16:55 W 13 16.09 Mostly Cloudy BKN110 21.1 -3.4 19% 75.16 0.0
08 16:35 NW 17 16.09 Mostly Cloudy BKN120 21.3 -3.5 19% 75.18 0.0
08 16:15 W 28 G 35 16.09 Mostly Cloudy BKN120 22 -4 17% 75.18 0.0
08 15:55 NW 19 G 30 16.09 Partly Cloudy SCT110 21.2 -3.6 19% 75.21 0.0
08 15:35 NW 20 G 31 16.09 Partly Cloudy SCT110 21.5 -3.6 18% 75.23 0.0
08 15:15 NW 20 G 35 16.09 Mostly Cloudy BKN110 21.3 -3.8 18% 75.26 0.0
08 14:56 NW 26 16.09 Mostly Cloudy BKN110 0 0 0% 75.29 0.0
08 14:54 W 26 16.09 Mostly Cloudy BKN110 21 -4 18% 75.29 0.0
08 14:32 W 26 16.09 Mostly Cloudy BKN110 21 -4 18% 75.31 0.0
08 14:13 W 19 16.09 Mostly Cloudy BKN120 21 -4 18% 75.31 0.0
08 13:56 W 17 16.09 Partly Cloudy SCT120 21 -5 17% 75.34 0.0
08 13:27 W 20 16.09 Partly Cloudy SCT100 21 -3 20% 75.36 0.0
08 12:48 W 22 16.09 Fair CLR 20 -4 20% 75.41 0.0
08 12:15 W 20 16.09 Partly Cloudy SCT110 20 -4 20% 0 0.0
08 11:31 W 28 16.09 Mostly Cloudy BKN100 18 -5 21% 75.51 0.0
08 11:08 W 19 16.09 Overcast OVC010 18 -4 22% 75.54 0.0
08 10:47 W 19 0.00 Overcast OVC110 17 -4 24% 75.54 0.0
08 10:31 W 20 16.09 Overcast OVC110 17 -4 24% 75.57 0.0
08 10:06 SW 22 16.09 Overcast OVC110 16 -4 25% 75.57 0.0
08 09:46 SW 20 16.09 Overcast OVC110 16 -4 25% 75.59 0.0
08 09:28 SW 26 16.09 Overcast OVC110 15 -4 27% 75.59 0.0
08 09:09 SW 31 16.09 Mostly Cloudy BKN010 15 -5 25% 0 0.0
08 08:51 SW 24 16.09 Partly Cloudy SCT110 14 -4 29% 75.62 0.0
08 08:23 SW 24 16.09 Fair CLR 13 -5 28% 75.64 0.0
08 07:55 SW 20 16.09 Fair CLR 11.3 -5.5 31% 75.64 0.0
08 07:35 SW 11 16.09 Fair CLR 9.9 -5.8 33% 9 75.64 0.0
08 07:15 SW 15 16.09 Fair CLR 8.7 -5.4 37% 7 75.64 0.0
08 06:55 SW 9 16.09 Fair CLR 7.2 -4.6 7.2 4.2 43% 6 75.64 0.0
08 06:35 SW 7 16.09 Fair CLR 6.5 -5.9 41% 5 75.64 0.0
08 06:15 S 7 16.09 Fair CLR 6.1 -6.1 42% 5 75.64 0.0
08 05:55 SW 11 16.09 Fair CLR 5.4 -6.1 44% 3 75.64 0.0
08 05:35 Calm 16.09 Fair CLR 5.2 -6.1 44% 75.64 0.0
08 05:15 S 7 16.09 Fair CLR 5.7 -6.5 41% 4 75.64 0.0
08 04:55 S 11 16.09 Fair CLR 6 -6.6 40% 4 75.64 0.0
08 04:35 S 15 16.09 Fair CLR 6 -6.5 41% 3 75.64 0.0
08 04:15 S 15 16.09 Fair CLR 6 -6.5 41% 3 75.64 0.0
08 03:55 S 17 16.09 Fair CLR 6.4 -6.7 39% 4 75.67 0.0
08 03:35 S 17 16.09 Fair CLR 6.6 -7 38% 4 75.67 0.0
08 03:15 S 17 16.09 Fair CLR 7 -7.1 36% 4 75.67 0.0
08 02:55 S 13 16.09 Fair CLR 6.1 -6.7 40% 4 75.67 0.0
08 02:35 S 15 16.09 Fair CLR 6.9 -7.1 36% 4 75.69 0.0
08 02:15 S 15 16.09 Fair CLR 6.5 -6.8 38% 4 75.69 0.0
08 01:55 S 13 16.09 Fair CLR 6.5 -6.6 39% 4 75.72 0.0
08 01:35 S 13 16.09 Fair CLR 5.8 -6.2 42% 3 75.72 0.0
08 01:15 S 11 16.09 Fair CLR 4.7 -5.2 49% 2 75.72 0.0
08 00:55 S 9 16.09 Fair CLR 4.5 -4.8 14 4 51% 3 75.74 0.0
08 00:35 SW 11 16.09 Fair CLR 4.9 -5.3 48% 3 75.74 0.0
08 00:15 S 9 16.09 Fair CLR 5 -5 49% 3 75.74 0.0
07 23:55 SW 11 16.09 Fair CLR 4.1 -4.6 54% 2 75.74 0.0
07 23:35 SW 11 16.09 Fair CLR 4.6 -4.6 52% 2 75.77 0.0
07 23:15 SW 13 16.09 Fair CLR 4.5 -4.2 54% 2 75.77 0.0
07 22:55 SW 9 16.09 Fair CLR 5.1 -4.6 50% 3 75.77 0.0
07 22:35 S 11 16.09 Fair CLR 5.5 -4.7 48% 3 75.79 0.0
07 22:15 SW 9 16.09 Fair CLR 5.7 -4.2 49% 4 75.79 0.0
07 21:55 S 9 16.09 Fair CLR 6.1 -4.4 47% 4 75.79 0.0
07 21:35 S 6 16.09 Fair CLR 7 -4.5 44% 75.77 0.0
07 21:15 Calm 16.09 Fair CLR 8 -5 40% 75.77 0.0
07 20:55 Calm 16.09 Fair CLR 9.3 -5 36% 75.74 0.0
07 20:35 N 6 16.09 Fair CLR 10.1 -6 32% 75.74 0.0
07 20:15 N 7 16.09 Fair CLR 12.6 -8 23% 75.74 0.0
07 19:55 Calm 16.09 Fair CLR 13 -7.8 23% 75.72 0.0
07 19:35 Calm 16.09 Fair CLR 13.6 -8.3 21% 75.72 0.0
07 19:15 NW 9 16.09 Fair CLR 13.6 -7.7 22% 75.72 0.0
07 18:55 NW 6 16.09 Fair CLR 14.1 -7.4 22% 75.74 0.0
07 18:35 NW 15 16.09 Fair CLR 14.2 -7.3 22% 75.74 0.0
07 18:15 N 11 16.09 Fair CLR 14.1 -7.8 21% 75.74 0.0
07 17:55 NW 17 G 26 16.09 Fair CLR 14.2 -8 21% 75.77 0.0
07 17:35 NW 11 G 28 16.09 Fair CLR 14.2 -8.1 21% 75.77 0.0
07 17:15 NW 17 G 28 16.09 Fair CLR 14.1 -8 21% 75.77 0.0
07 16:55 NW 19 16.09 Fair CLR 13.8 -7.7 22% 75.79 0.0
07 16:35 Calm 16.09 Fair CLR 13.5 -8.3 21% 75.79 0.0
07 16:15 NW 20 G 33 16.09 Fair CLR 13.8 -7.5 22% 75.79 0.0
07 15:55 NW 20 G 28 16.09 Fair CLR 13.5 -8.4 21% 75.79 0.0
07 15:35 NW 6 16.09 Fair CLR 13.2 -7.9 22% 75.82 0.0
07 15:22 NW 22 G 28 16.09 Fair CLR 0 0 0% 75.82 0.0
07 14:49 N 19 16.09 Fair CLR 13 -7 24% 75.84 0.0
07 14:31 NW 22 16.09 Fair CLR 13 -8 23% 75.84 0.0
07 14:05 W 22 16.09 Fair CLR 13 -8 23% 75.84 0.0
07 13:47 N 19 16.09 Fair CLR 12 -7 26% 75.84 0.0
07 13:27 W 22 16.09 Fair CLR 12 -8 24% 75.87 0.0
07 13:03 W 19 16.09 Fair CLR 12 -8 24% 75.87 0.0
07 12:43 N 19 16.09 Fair CLR 12 -7 26% 75.87 0.0
07 12:23 N 22 16.09 Fair CLR 11 -8 26% 75.9 0.0
07 12:04 N 20 16.09 Fair CLR 11 -7 28% 75.92 0.0
07 11:44 N 15 16.09 Fair CLR 11 -7 28% 75.92 0.0
07 11:23 W 7 16.09 Fair CLR 10 -8 28% 9 75.92 0.0
07 11:03 NE 17 16.09 Fair CLR 10 -7 30% 8 75.95 0.0
07 10:43 NE 11 16.09 Fair CLR 10 -6 32% 9 75.97 0.0
07 10:23 N 15 16.09 Fair CLR 9 -6 34% 7 75.97 0.0
07 10:03 Calm 16.09 Fair CLR 8 -6 37% 75.97 0.0
07 09:44 Calm 16.09 Fair CLR 8 -4 43% 75.97 0.0
07 09:24 Calm 16.09 Fair CLR 7 -3 49% 76 0.0
07 09:05 NE 6 16.09 Fair CLR 7 -3 49% 76 0.0
07 08:42 Calm 16.09 Fair CLR 6 -3 53% 76.02 0.0
07 08:24 Calm 16.09 Fair CLR 5 -3 57% 76.02 0.0
07 08:02 NE 6 16.09 Fair CLR 4 -2 65% 76.02 0.0
07 07:43 Calm 16.09 Fair CLR 3 -2 70% 76.02 0.0
07 07:15 Calm 16.09 Fair CLR 0.4 -2.9 79% 76.02 0.0
07 06:55 NE 6 16.09 Fair CLR -0.5 -3.1 2 -2.5 83% 76.02 0.0
07 06:35 Calm 16.09 Fair CLR -1 -3.2 85% 76.02 0.0
07 06:15 Calm 16.09 Partly Cloudy SCT075 -1.1 -3.9 82% 76 0.0
07 05:55 Calm 16.09 Overcast OVC075 -1.1 -3.8 82% 76 0.0
07 05:35 Calm 16.09 Mostly Cloudy BKN075 -1.6 -4.2 83% 76 0.0
07 05:15 Calm 16.09 Partly Cloudy SCT075 -2.1 -4.5 84% 76 0.0
07 04:55 Calm 16.09 Partly Cloudy SCT075 SCT085 -1.8 -4.5 82% 76 0.0
07 04:35 SW 6 16.09 Fair CLR -1.5 -4.3 81% 76.02 0.0
07 04:15 SW 7 16.09 Fair CLR -1.4 -4 83% -4 76.02 0.0
07 03:55 SW 7 16.09 Fair CLR -0.5 -3.5 80% -3 76.02 0.0
07 03:35 SW 6 16.09 Fair CLR -0.7 -3.5 82% 76.05 0.0
07 03:15 SW 6 16.09 Fair CLR -1 -3 86% 76.05 0.0
07 02:55 SW 6 16.09 Fair CLR 0 -3.4 78% 76.05 0.0
07 02:35 SW 7 16.09 Partly Cloudy SCT080 0.1 -3.2 79% -2 76.05 0.0
07 02:15 SW 6 16.09 Partly Cloudy SCT080 0.7 -3.2 75% 76.05 0.0
07 01:55 SW 6 16.09 Partly Cloudy SCT080 1.4 -3.1 72% 76.07 0.0
07 01:35 SW 9 16.09 Mostly Cloudy BKN080 1.6 -2.8 73% -1 76.1 0.0
07 01:15 SW 7 16.09 Overcast OVC080 1.6 -2.5 74% -0 76.1 0.0
07 00:55 S 6 16.09 Overcast OVC080 2 -3 7.5 1.7 70% 76.1 0.0
07 00:35 S 7 16.09 Overcast SCT070 OVC080 1.9 -3 70% 0 76.1 0.0
07 00:15 SW 7 16.09 Overcast BKN080 OVC095 2.1 -3 69% 0 76.1 0.0
06 23:55 SW 6 16.09 Mostly Cloudy BKN080 2 -2.8 71% 76.12 0.0
06 23:35 S 6 16.09 Overcast OVC080 2.3 -3.2 67% 76.12 0.0
06 23:15 S 6 16.09 Overcast OVC080 2.1 -2.8 70% 76.12 0.0
06 22:55 S 6 16.09 Overcast OVC080 2.6 -2.7 68% 76.15 0.0
06 22:35 Calm 16.09 Overcast OVC080 2.1 -2.9 70% 76.15 0.0
06 22:15 S 6 16.09 Overcast OVC080 2.7 -3.1 66% 76.17 0.0
06 21:55 Calm 16.09 Overcast OVC080 3.4 -3.7 60% 76.17 0.0
06 21:35 S 6 16.09 Mostly Cloudy BKN080 2.8 -3.5 64% 76.17 0.0
06 21:15 Calm 16.09 Partly Cloudy SCT070 4.1 -4.1 56% 76.17 0.0
06 20:55 Calm 16.09 Partly Cloudy SCT070 4.5 -5 51% 76.17 0.0
06 20:35 NW 6 16.09 Fair CLR 5.4 -4.7 49% 76.15 0.0
06 20:15 NW 9 16.09 Partly Cloudy SCT060 5.9 -4.7 47% 4 76.15 0.0
06 19:55 NW 15 16.09 Mostly Cloudy BKN060 7.1 -4.7 43% 5 76.17 0.0
06 19:35 NW 19 16.09 Overcast OVC060 7.3 -4.5 43% 4 76.17 0.0
06 19:15 NW 15 16.09 Overcast OVC060 7.4 -4.7 42% 5 76.17 0.0
06 18:55 NW 17 16.09 Overcast OVC060 7.6 -4.6 42% 5 76.17 0.0
06 18:35 NW 20 16.09 Overcast OVC060 7.6 -4.4 43% 5 76.17 0.0
06 18:15 NW 20 G 26 16.09 Overcast OVC050 7.5 -4.5 43% 4 76.17 0.0
06 17:55 NW 22 G 30 16.09 Mostly Cloudy BKN050 7.7 -4.4 42% 5 76.17 0.0
06 17:35 NW 24 G 30 16.09 Mostly Cloudy BKN050 8.4 -3.6 43% 5 76.17 0.0
06 17:15 NW 19 16.09 Overcast OVC050 8 -3.8 43% 5 76.2 0.0
06 16:55 NW 13 G 30 16.09 Overcast OVC050 8.1 -3.8 43% 6 76.2 0.0
06 16:35 W 22 G 30 16.09 Overcast OVC050 8.3 -3.5 44% 5 76.23 0.0
06 16:26 W 22 G 33 16.09 Overcast OVC050 7 -4 46% 4 76.23 0.0
06 16:04 W 19 16.09 Overcast OVC048 7 -4 46% 4 76.23 0.0
06 15:45 W 15 16.09 Overcast OVC050 7 -4 46% 5 76.23 0.0
06 15:23 NW 19 16.09 Overcast OVC050 7 -4 46% 4 76.23 0.0
06 15:06 W 20 16.09 Overcast OVC050 7 -4 46% 4 76.25 0.0
06 14:46 NW 26 16.09 Overcast OVC050 6 -4 49% 2 76.25 0.0
06 14:25 W 24 16.09 Overcast BKN047 OVC050 6 -5 46% 2 76.25 0.0
06 14:05 W 22 16.09 Overcast BKN047 OVC050 6 -5 46% 2 76.25 0.0
06 13:45 NW 22 16.09 Overcast OVC050 6 -4 49% 2 76.25 0.0
06 13:09 NW 28 16.09 Overcast OVC048 6 -5 46% 2 76.28 0.0
06 12:48 W 24 16.09 Overcast BKN046 OVC050 5 -5 49% 1 76.28 0.0
06 12:31 W 22 16.09 Overcast BKN046 OVC050 5 -5 49% 1 76.3 0.0
06 12:04 W 24 16.09 Overcast OVC050 5 -5 49% 1 76.3 0.0
06 11:44 NW 24 16.09 Overcast SCT045 OVC050 5 -5 49% 1 76.3 0.0
06 11:27 NW 20 16.09 Overcast OVC050 5 -5 49% 1 76.3 0.0
06 11:09 NW 19 16.09 Overcast OVC050 5 -5 49% 2 76.3 0.0
06 10:46 NW 15 16.09 Overcast OVC050 4 -4 56% 1 76.3 0.0
06 10:27 NW 15 16.09 Overcast OVC050 4 -4 56% 1 76.28 0.0
06 10:07 NW 13 16.09 Overcast OVC050 4 -4 56% 1 76.28 0.0
06 09:34 NW 19 16.09 Overcast OVC050 4 -5 52% 0 76.28 0.0
06 09:03 W 20 16.09 Overcast OVC050 4 -5 52% 0 76.28 0.0
06 08:43 W 17 16.09 Overcast OVC055 4 -4 56% 1 76.28 0.0
06 08:23 W 17 16.09 Overcast OVC055 4 -4 56% 1 76.25 0.0
06 07:55 NW 19 16.09 Overcast OVC055 3.5 -3.2 62% -0 76.23 0.0
06 07:35 NW 13 16.09 Mostly Cloudy BKN055 2.5 -3 67% -1 76.2 0.0
06 07:15 Calm 16.09 Partly Cloudy SCT055 1 -4 70% 76.2 0.0
06 06:55 Calm 16.09 Fair CLR -0.1 -4.1 3 -1.6 75% 76.17 0.0
06 06:35 Calm 16.09 Fair CLR -0.5 -4.5 75% 76.15 0.0
06 06:15 Calm 16.09 Fair CLR -0.9 -4.7 76% 76.15 0.0
06 05:55 Calm 16.09 Fair CLR -1.6 -5 78% 76.17 0.0
06 05:35 W 6 16.09 Fair CLR -1 -4.8 76% 76.15 0.0
06 05:15 SW 6 16.09 Fair CLR -0.8 -5 74% 76.12 0.0
06 04:55 Calm 16.09 Fair CLR -0.6 -4.9 73% 76.12 0.0
06 04:35 Calm 16.09 Fair CLR -0.7 -5 73% 76.12 0.0
06 04:15 W 6 16.09 Fair CLR 0 -4.9 70% 76.12 0.0
06 03:55 NW 6 16.09 Fair CLR 0 -4.9 70% 76.1 0.0
06 03:35 W 6 16.09 Fair CLR 0.1 -4.7 70% 76.1 0.0
06 03:15 W 7 16.09 Fair CLR 0.7 -4.7 68% -1 76.1 0.0
06 02:55 W 9 16.09 Fair CLR 1 -4.7 66% -2 76.1 0.0
06 02:35 W 9 16.09 Fair CLR 0.3 -4.6 70% -2 76.07 0.0
06 02:15 NW 13 16.09 Fair CLR 0.1 -4.8 70% -3 76.07 0.0
06 01:55 NW 9 16.09 Fair CLR 0.9 -4.8 66% -2 76.05 0.0
06 01:35 NW 9 16.09 Fair CLR 1.5 -4.8 63% -1 76.05 0.0
06 01:15 NW 7 16.09 Fair CLR 2.4 -4.8 59% 1 76.05 0.0
06 00:55 NW 13 16.09 Fair CLR 2.7 -4.7 59% -0 76.05 0.0
06 00:35 NW 11 16.09 Fair CLR 2.4 -4.5 61% -0 76.05 0.0
06 00:15 NW 7 16.09 Fair CLR 3.2 -4.2 59% 2 76.05 0.0
05 23:55 NW 13 16.09 Fair CLR 4 -4.1 56% 1 76.02 0.0
05 23:35 NW 13 16.09 Fair CLR 3 -4.3 59% 0 76 0.0
05 23:15 W 13 16.09 Fair CLR 3.6 -4.5 56% 1 76 0.0
05 22:55 W 13 16.09 Fair CLR 3.5 -4.6 56% 1 76 0.0
05 22:35 NW 11 16.09 Fair CLR 3.6 -4.6 55% 1 75.97 0.0
05 22:15 NW 9 16.09 Fair CLR 4.5 -4.6 52% 3 75.97 0.0
05 21:55 NW 11 16.09 Fair CLR 5.7 -4.8 47% 4 75.97 0.0
05 21:35 NW 15 16.09 Partly Cloudy SCT080 6.5 -5 44% 4 75.95 0.0
05 21:15 NW 19 16.09 Partly Cloudy SCT080 7 -5 43% 4 75.92 0.0
05 21:09 NW 17 16.09 Partly Cloudy SCT080 7 -5 43% 4 75.9 0.0
05 21:04 NW 15 16.09 Partly Cloudy SCT080 7 -5 43% 5 75.9 0.0
05 20:41 NW 19 16.09 Mostly Cloudy BKN080 8 -5 40% 5 75.87 0.0
05 20:23 NW 17 16.09 Overcast OVC080 8 -5 40% 6 75.87 0.0
05 20:03 NW 19 16.09 Mostly Cloudy BKN080 8 -5 40% 5 75.84 0.0
05 19:42 NW 19 16.09 Mostly Cloudy BKN080 8 -6 37% 5 75.84 0.0
05 19:15 NW 17 16.09 Overcast OVC080 9 -5 37% 7 75.82 0.0
05 18:55 NW 22 16.09 Overcast OVC080 9.4 -5.1 36% 7 75.82 0.0
05 18:35 NW 24 G 35 16.09 Overcast SCT070 OVC080 9.6 -5.3 35% 7 75.79 0.0
05 18:15 NW 20 16.09 Overcast SCT070 OVC080 9.6 -5.8 34% 7 75.79 0.0
05 17:55 NW 19 G 33 16.09 Overcast SCT070 OVC080 10 -5.5 33% 8 75.79 0.0
Date Time (cdt) Wind (kph) Vis. (km) Weather Sky Cond. Air Dwpt Max. Min. Relative Humidity Wind Chill (°C) Heat Index (°C) altimeter (cm) sea level (mb) 1 hr 3 hr 6 hr
6 hour
Temperature (ºC) Pressure Precipitation (cm)